sat.trackr.live / text

‹ back to catalog

ONEWEB-0230

NORAD 48769 · 2021-045C

PAYLOAD ACTIVE UNKNOWN

§ Identity

Operator
Country
UK
Launch date
2021-05-28
Launch site
VOSTO
Launch vehicle
Mass (kg)
RCS (m²)

Purposes: comms

External: N2YO · Heavens-Above · Gunter

§ Orbital elements

Epoch: 2026-05-25T01:02:21.469056Z

Period
109.46 min
Inclination
87.8988°
Eccentricity
0.0002062
Mean motion
13.15547124 rev/d
Perigee alt
1,200.2 km
Apogee alt
1,203.3 km
Semi-major
7,579.9 km
B*
-2.8750e-4
RAAN
263.8158°
Arg perigee
98.6426°
Mean anomaly
261.4938°
Rev number
24,162

§ Raw data

ONEWEB-02301 48769U 21045C   26145.04330404 -.00000095  00000+0 -28750-3 0  99922 48769  87.8988 263.8158 0002062  98.6426 261.4938 13.15547124241623

JSON: /api/v1/satellites/48769 · /tle

For live sub-satellite position, see the globe view (requires WebGL).

§ Visibility from observer

Set your observer location to see the next 7 days of passes ≥ 10°. The values pass through the URL so the page stays shareable.

No JS? Fill the form by hand. The geolocation button needs JavaScript.